Tracking 17921 objects as of 16-January-2017
HD Live streaming from Space Station
objects crossing your sky now

BREEZE-M DEB

Track BREEZE-M DEB now!
10-day predictions


NORAD ID: 34250
Int'l Code: 2006-006BR
Perigee: 491.3 km
Apogee: 14,747.4 km
Inclination: 51.7 °
Period: 274.5 minutes
Semi major axis: 13990 km
RCS: 0.0694 m2 (small)
Launch date: February 28, 2006
Source: Commonwealth of Independent States (former USSR) (CIS)
Launch site: TYURATAM MISSILE AND SPACE COMPLEX (TTMTR)

Note: This is SATELLITE DEBRIS
Your satellite tracking list
Your tracking list is empty





NASA's NSSDC Master Catalog

Two Line Element Set (TLE):
1 34250U 06006BR  17014.50575350 +.00000233 +00000-0 +34150-3 0  9993
2 34250 051.6686 151.1267 5094992 313.4048 014.0559 05.24639480173963
Source of the keplerian elements: AFSPC